EN

Hourly Weather Yarumal

Today, 25 January, Monday

Time Temperature Precipitation Wind Pressure Humidity
00:00 +12°C° 0.3 mm 1 mps 573 mmHg 97%
01:00 +12°C° 0 mm 1 mps 573 mmHg 97%
02:00 +11°C° 0 mm 0 mps 573 mmHg 97%
03:00 +10°C° 0 mm 0 mps 572 mmHg 97%
04:00 +10°C° 0 mm 0 mps 572 mmHg 97%
05:00 +10°C° 0 mm 0 mps 573 mmHg 97%
06:00 +11°C° 0 mm 1 mps 573 mmHg 96%
07:00 +12°C° 0 mm 1 mps 573 mmHg 98%
08:00 +14°C° 0 mm 1 mps 575 mmHg 87%
09:00 +18°C° 0 mm 1 mps 576 mmHg 76%
10:00 +20°C° 0 mm 1 mps 577 mmHg 66%
11:00 +20°C° 0.8 mm 1 mps 576 mmHg 71%
12:00 +19°C° 0.8 mm 1 mps 576 mmHg 77%
13:00 +18°C° 0.8 mm 2 mps 575 mmHg 82%
14:00 +19°C° 0.7 mm 1 mps 574 mmHg 84%
15:00 +18°C° 0.7 mm 1 mps 574 mmHg 86%
16:00 +18°C° 0.7 mm 1 mps 573 mmHg 87%
17:00 +16°C° 0.1 mm 1 mps 573 mmHg 91%
18:00 +15°C° 0.1 mm 1 mps 573 mmHg 95%
19:00 +13°C° 0.1 mm 0 mps 573 mmHg 99%
20:00 +13°C° 0 mm 0 mps 573 mmHg 98%
21:00 +12°C° 0 mm 0 mps 573 mmHg 98%
22:00 +12°C° 0 mm 0 mps 574 mmHg 97%
23:00 +12°C° 0 mm 0 mps 574 mmHg 97%

Tomorrow, 26 January, Tuesday

Time Temperature Precipitation Wind Pressure Humidity
00:00 +11°C° 0 mm 0 mps 573 mmHg 96%
01:00 +11°C° 0 mm 0 mps 573 mmHg 96%
02:00 +11°C° 0 mm 0 mps 573 mmHg 96%
03:00 +11°C° 0 mm 1 mps 573 mmHg 96%
04:00 +11°C° 0 mm 1 mps 572 mmHg 95%
05:00 +11°C° 0 mm 1 mps 573 mmHg 95%
06:00 +11°C° 0 mm 1 mps 573 mmHg 95%
07:00 +12°C° 0 mm 1 mps 574 mmHg 94%
08:00 +14°C° 0.2 mm 1 mps 575 mmHg 87%
09:00 +16°C° 0.2 mm 1 mps 576 mmHg 80%
10:00 +19°C° 0.2 mm 1 mps 577 mmHg 72%
11:00 +19°C° 1.1 mm 1 mps 577 mmHg 76%
12:00 +19°C° 1.1 mm 1 mps 576 mmHg 80%
13:00 +19°C° 1.1 mm 1 mps 576 mmHg 84%
14:00 +18°C° 1 mm 1 mps 575 mmHg 87%
15:00 +18°C° 1 mm 1 mps 574 mmHg 90%
16:00 +16°C° 1 mm 1 mps 573 mmHg 93%
17:00 +14°C° 0.3 mm 0 mps 573 mmHg 95%
18:00 +13°C° 0.3 mm 0 mps 573 mmHg 96%
19:00 +12°C° 0.3 mm 0 mps 573 mmHg 98%
20:00 +12°C° 0.2 mm 0 mps 573 mmHg 97%
21:00 +11°C° 0.2 mm 0 mps 573 mmHg 97%
22:00 +12°C° 0.2 mm 1 mps 573 mmHg 96%
23:00 +12°C° 0 mm 1 mps 573 mmHg 96%

Day after tomorrow, 27 January, Wednesday

Time Temperature Precipitation Wind Pressure Humidity
00:00 +11°C° 0 mm 1 mps 573 mmHg 96%
01:00 +11°C° 0 mm 1 mps 573 mmHg 96%
02:00 +11°C° 0 mm 1 mps 573 mmHg 96%
03:00 +11°C° 0 mm 1 mps 572 mmHg 95%
04:00 +11°C° 0 mm 1 mps 572 mmHg 95%
05:00 +11°C° 0 mm 1 mps 573 mmHg 95%
06:00 +11°C° 0 mm 1 mps 573 mmHg 94%
07:00 +11°C° 0 mm 1 mps 574 mmHg 93%
08:00 +14°C° 0 mm 1 mps 575 mmHg 84%
09:00 +16°C° 0 mm 1 mps 576 mmHg 76%
10:00 +20°C° 0 mm 1 mps 578 mmHg 67%
11:00 +20°C° 0.1 mm 1 mps 577 mmHg 66%
12:00 +20°C° 0.1 mm 1 mps 577 mmHg 66%
13:00 +20°C° 0.1 mm 2 mps 577 mmHg 66%
14:00 +19°C° 0.5 mm 1 mps 576 mmHg 75%
15:00 +18°C° 0.5 mm 1 mps 574 mmHg 83%
16:00 +16°C° 0.5 mm 1 mps 573 mmHg 92%
17:00 +15°C° 0.2 mm 1 mps 573 mmHg 94%
18:00 +14°C° 0.2 mm 1 mps 573 mmHg 97%
19:00 +12°C° 0.2 mm 0 mps 573 mmHg 99%
20:00 +12°C° 0 mm 0 mps 574 mmHg 99%
21:00 +12°C° 0 mm 0 mps 574 mmHg 98%
22:00 +12°C° 0 mm 0 mps 574 mmHg 98%
23:00 +11°C° 0 mm 0 mps 574 mmHg 97%

28 January, Thursday

Time Temperature Precipitation Wind Pressure Humidity
00:00 +11°C° 0 mm 0 mps 574 mmHg 97%
01:00 +11°C° 0 mm 0 mps 574 mmHg 96%
02:00 +11°C° 0 mm 1 mps 573 mmHg 96%
03:00 +11°C° 0 mm 1 mps 573 mmHg 96%
04:00 +11°C° 0 mm 1 mps 573 mmHg 95%
05:00 +11°C° 0 mm 1 mps 573 mmHg 95%
06:00 +11°C° 0 mm 1 mps 574 mmHg 95%
07:00 +11°C° 0 mm 1 mps 574 mmHg 94%
08:00 +13°C° 0 mm 1 mps 575 mmHg 85%
09:00 +16°C° 0 mm 1 mps 577 mmHg 76%
10:00 +19°C° 0 mm 1 mps 578 mmHg 67%
11:00 +19°C° 0.3 mm 1 mps 578 mmHg 70%
12:00 +19°C° 0.3 mm 1 mps 577 mmHg 73%
13:00 +18°C° 0.3 mm 2 mps 576 mmHg 77%
14:00 +18°C° 0.6 mm 1 mps 575 mmHg 82%
15:00 +16°C° 0.6 mm 1 mps 574 mmHg 88%
16:00 +15°C° 0.6 mm 1 mps 573 mmHg 93%
17:00 +14°C° 0.1 mm 1 mps 573 mmHg 95%
18:00 +13°C° 0.1 mm 0 mps 573 mmHg 96%
19:00 +12°C° 0.1 mm 0 mps 573 mmHg 98%
20:00 +11°C° 0 mm 0 mps 573 mmHg 97%
21:00 +12°C° 0 mm 1 mps 573 mmHg 97%
22:00 +11°C° 0 mm 1 mps 573 mmHg 97%
23:00 +11°C° 0 mm 1 mps 573 mmHg 96%

29 January, Friday

Time Temperature Precipitation Wind Pressure Humidity
00:00 +11°C° 0 mm 1 mps 573 mmHg 96%
01:00 +11°C° 0 mm 1 mps 573 mmHg 96%
02:00 +10°C° 0 mm 1 mps 573 mmHg 95%
03:00 +10°C° 0 mm 1 mps 572 mmHg 95%
04:00 +10°C° 0 mm 1 mps 572 mmHg 95%
05:00 +10°C° 0 mm 1 mps 572 mmHg 94%
06:00 +10°C° 0 mm 1 mps 573 mmHg 94%
07:00 +11°C° 0 mm 1 mps 573 mmHg 93%
08:00 +13°C° 0 mm 1 mps 575 mmHg 82%
09:00 +16°C° 0 mm 1 mps 576 mmHg 71%
10:00 +20°C° 0 mm 1 mps 578 mmHg 59%
11:00 +20°C° 0 mm 1 mps 577 mmHg 59%
12:00 +20°C° 0 mm 2 mps 577 mmHg 58%
13:00 +21°C° 0 mm 2 mps 577 mmHg 57%
14:00 +19°C° 0.4 mm 2 mps 575 mmHg 67%
15:00 +18°C° 0.4 mm 2 mps 574 mmHg 77%
16:00 +18°C° 0.4 mm 1 mps 573 mmHg 87%
17:00 +15°C° 0.3 mm 1 mps 573 mmHg 91%
18:00 +14°C° 0.3 mm 1 mps 573 mmHg 95%
19:00 +12°C° 0.3 mm 0 mps 572 mmHg 99%
20:00 +12°C° 0.1 mm 0 mps 573 mmHg 98%
21:00 +11°C° 0.1 mm 0 mps 573 mmHg 98%
22:00 +11°C° 0.1 mm 0 mps 573 mmHg 98%
23:00 +11°C° 0 mm 0 mps 573 mmHg 98%

30 January, Saturday

Time Temperature Precipitation Wind Pressure Humidity
00:00 +10°C° 0 mm 0 mps 573 mmHg 97%
01:00 +10°C° 0 mm 0 mps 572 mmHg 97%
02:00 +10°C° 0 mm 0 mps 572 mmHg 97%
03:00 +10°C° 0 mm 0 mps 572 mmHg 97%
04:00 +10°C° 0 mm 0 mps 572 mmHg 96%
05:00 +11°C° 0 mm 1 mps 572 mmHg 96%
06:00 +11°C° 0 mm 1 mps 573 mmHg 96%
07:00 +11°C° 0 mm 1 mps 573 mmHg 95%
08:00 +13°C° 0 mm 1 mps 574 mmHg 85%
09:00 +16°C° 0 mm 1 mps 576 mmHg 76%
10:00 +19°C° 0 mm 1 mps 577 mmHg 66%
11:00 +19°C° 0.4 mm 1 mps 577 mmHg 68%
12:00 +19°C° 0.4 mm 1 mps 576 mmHg 71%
13:00 +19°C° 0.4 mm 2 mps 575 mmHg 73%
14:00 +19°C° 0.7 mm 1 mps 575 mmHg 78%
15:00 +18°C° 0.7 mm 1 mps 574 mmHg 82%
16:00 +18°C° 0.7 mm 1 mps 573 mmHg 86%
17:00 +16°C° 0.2 mm 1 mps 573 mmHg 90%
18:00 +14°C° 0.2 mm 1 mps 573 mmHg 94%
19:00 +12°C° 0.2 mm 0 mps 573 mmHg 98%
20:00 +12°C° 0.1 mm 0 mps 573 mmHg 98%
21:00 +12°C° 0.1 mm 0 mps 573 mmHg 98%
22:00 +11°C° 0.1 mm 0 mps 573 mmHg 97%
23:00 +12°C° 0 mm 1 mps 573 mmHg 97%
Show more

We Need Your Consent

Meteoprog and our Service Providers may store and access personal data such as cookies, device identifiers or other similar technologies on your device and process such data to personalise content and ads, as well as provide social media features and to analyse the traffic.

  • Store and/or access information on your device

    Cookies, device identifiers or other information can be stored or accessed on your device for the purposes indicated above.

  • Personalised ads and content, ad and content measurement, audience insights, and products development

    Ads and content can be personalised based on a profile. More data can be added to better personalise ads and content. Ad and content performance can be measured. Insights about the audience who saw the ads and content can be derived. Such data can be used to develop or improve user’s experience, systems and software.

By clicking ‘I Agree’ you will allow the use of indicated cookies, device identifiers, web beacons or other similar technologies. Your settings can be changed in the browser on your device.

For certain purposes, legitimate interests may be relied on, rather than consent. You can read more about this in our Privacy and Cookie Policy.